Regional Weather Roundup
Issued by NWS Sterling, VA

Home | Current Version | Previous Version | Graphics & Text | Print | Product List | Glossary On
Versions: 1 2 3 4 5 6 7 8 9 10 11 12 13 14 15 16 17 18 19 20 21 22 23 24 25 26 27 28 29 30 31 32 33 34 35 36 37 38 39 40 41 42 43 44 45 46 47 48 49 50
000
ASUS41 KLWX 232310
RWRLWX

REGIONAL WEATHER ROUNDUP
NATIONAL WEATHER SERVICE BALTIMORE MD/WASHINGTON DC
700 PM EDT SAT MAY 23 2015

Note: "FAIR" indicates few or no clouds below 12,000 feet
with no significant weather and/or obstructions to visibility.
 TC=TEMPERATURE CELSIUS

 * =Non NWS site. Station does not report precipitation (e.g. rain,
    snow, etc.), thunder, or fog.

DCZ001-MDZ009-015-VAZ040>042-051-053>054-240000-
WASHINGTON METRO

CITY           SKY/WX    TMP DP  RH WIND       PRES   REMARKS
WASHINGTON NAT SUNNY     72  40  31 S8        30.37F
DULLES         MOSUNNY   71  38  29 SW5       30.36S
ANDREWS AFB    SUNNY     70  38  31 SW6       30.36F
FT BELVOIR     SUNNY     70  41  34 SE5       30.37S
QUANTICO       SUNNY     72  41  32 S7        30.37F
COLLEGE PARK*  SUNNY     72  32  23 CALM      30.36S
LEESBURG*      SUNNY     73  45  35 S5        30.37S
MANASSAS*      SUNNY     72  39  30 CALM      30.36F
GAITHERSBURG*  SUNNY     68  37  32 CALM      30.40F

$$

MDZ006>007-011-014-240000-
BALTIMORE METRO

CITY           SKY/WX    TMP DP  RH WIND       PRES   REMARKS
BWI AIRPORT    MOSUNNY   68  40  35 SE6       30.36S
MD SCIENCE CTR   N/A     68  37  32 MISG      30.37F
MARTIN STATE   SUNNY     66  45  45 S9        30.39S
ANNAPOLIS      SUNNY     66  38  35 S8        30.38S
FORT MEADE*    SUNNY     64  37  36 CALM      30.39S

$$

MDZ012-015-019>023-240000-
MARYLAND EASTERN SHORE

CITY           SKY/WX    TMP DP  RH WIND       PRES   REMARKS
OCEAN CITY     SUNNY     59  44  57 S6        30.41F
SALISBURY      SUNNY     62  47  57 SE8       30.39F
BAY BRIDGE AP*   N/A    N/A N/A N/A S6        30.38S
CAMBRIDGE*     SUNNY     70  34  26 SE5       30.39R
EASTON*        MOSUNNY   70  37  30 CALM      30.42F

$$

MDZ017>025-240000-
SOUTHERN MARYLAND

CITY           SKY/WX    TMP DP  RH WIND       PRES   REMARKS
PATUXENT RIVER SUNNY     66  40  38 SE7       30.38F
ST INIGOES     SUNNY     66  39  37 SE8       30.38F
LEONARDTOWN*   SUNNY     68  36  30 SW5       30.40R

$$

MDZ003>005-240000-
NORTH CENTRAL MARYLAND

CITY           SKY/WX    TMP DP  RH WIND       PRES   REMARKS
FREDERICK*     SUNNY     72  39  30 VRB3      30.38F
HAGERSTOWN APT SUNNY     72  34  24 S8        30.34F
WESTMINSTER*   SUNNY     72  30  21 SW3       30.36F

$$

MDZ501>502-240000-
WESTERN MARYLAND

CITY           SKY/WX    TMP DP  RH WIND       PRES   REMARKS
OAKLAND*       SUNNY     63  34  34 CALM      30.39F
CUMBERLAND*    SUNNY     75  34  22 CALM      30.36S

$$

VAZ025>031-240000-
SHENANDOAH VALLEY

CITY           SKY/WX    TMP DP  RH WIND       PRES   REMARKS
WINCHESTER*    SUNNY     72  32  23 SE6       30.34F
FRONT ROYAL*   FAIR      70  45  40 S6        30.33F
LURAY*         FAIR      73  48  40 SW8       30.34F
NEW MARKET*    FAIR      72  48  42 SE6       30.32S
STAUNTON*      SUNNY     71  47  42 SE7       30.37S
WAYNESBORO*    FAIR      69  49  50 SE5       30.36S

$$

WVZ021-048>050-054>055-240000-
EASTERN WEST VIRGINIA PANHANDLE

CITY           SKY/WX    TMP DP  RH WIND       PRES   REMARKS
MARTINSBURG    SUNNY     70  42  36 SE5       30.35F
PETERSBURG*    SUNNY     75  35  23 E3        30.33S

$$

VAZ036>039-050-240000-
CENTRAL FOOTHILLS

CITY           SKY/WX    TMP DP  RH WIND       PRES   REMARKS
CHARLOTTESVILL SUNNY     71  46  40 S7        30.35F
CULPEPER*      SUNNY     71  43  37 S3        30.37S
ORANGE*        SUNNY     72  45  37 CALM      30.38S
GORDONSVILLE*  FAIR      71  47  41 SE5       30.36S
WARRENTON*     FAIR      72  46  39 SE3       30.36S

$$

VAZ055>057-240000-
NORTH AND CENTRAL PIEDMONT

CITY           SKY/WX    TMP DP  RH WIND       PRES   REMARKS
FREDERICKSBRG* SUNNY     75  44  32 S5        30.35F
STAFFORD*      SUNNY     72  39  30 CALM      30.40F

$$

NCZ024-NYZ072-PAZ021-071-VAZ022-071-240000-
OTHER REGIONAL OBSERVATIONS

CITY           SKY/WX    TMP DP  RH WIND       PRES   REMARKS
NEW YORK CITY  SUNNY     64  37  36 S6        30.35S
PHILADELPHIA   MOSUNNY   70  27  20 W9        30.37S
PITTSBURGH     MOSUNNY   71  34  25 NW7       30.33F
ROANOKE        MOSUNNY   73  48  41 S13       30.37S
RICHMOND       MOSUNNY   73  44  35 S7        30.37F
RALEIGH        MOSUNNY   77  47  34 SE3       30.36F

$$

ANZ530>537-240000-
MARINE OBSERVATIONS

STATION/POSITION TIME  TEMP    WIND        PRES
                       AIR SEA DIR/SP/G
                 (UTC) (F)     (DEG/KT/KT) (MB)
THOMAS PT LIGHT  2300   67 66  160/  7/  8 1029.2F
BALT KEY BRIDGE  2200   64     110/ 12/ 14 1028.3F
LEWISETTA        2200   65 70              1028.8F
SOLOMONS ISLAND  2200      69                N/A
PINEY POINT      2218          160/  9/ 10   N/A

$$



USA.gov is the U.S. government's official web portal to all federal, state and local government web resources and services.